Weather History for KJWG - December, 2013

Change the Weather History Date:

Thursday, December 5, 2013

  Actual Average Record
Temperature  
Mean Temperature 22 °F -  
Max Temperature 27 °F 55 °F 77 °F (1989)
Min Temperature 17 °F 33 °F 16 °F (1964)
Degree Days  
Heating Degree Days 43    
Moisture  
Dew Point 10 °F    
Average Humidity 62    
Maximum Humidity 85    
Minimum Humidity 51    
Precipitation  
Precipitation 0.00 in - - ()
Sea Level Pressure  
Sea Level Pressure 30.22 in    
Wind  
Wind Speed 19 mph (North)    
Max Wind Speed 26 mph    
Max Gust Speed 32 mph    
Visibility 10 miles    
Events Snow    
Averages and records for this station are not official NWS values.
T = Trace of Precipitation, MM = Missing Value Source: NWS Daily Summary

Daily Weather History Graph

Daily Weather History Graph

Search for Another Location

Airport or City:

Trip Planner

Search our weather history database for the weather conditions in past years. The results will help you decide how hot, cold, wet, or windy it might be!

Date:

Astronomy

Dec. 05, 2013 Rise Set
Actual Time 7:29 AM CST 5:19 PM CST
Civil Twilight 7:00 AM CST 5:47 PM CST
Nautical Twilight 6:29 AM CST 6:19 PM CST
Astronomical Twilight 5:58 AM CST 6:50 PM CST
Moon 9:53 AM CST (12/5) 8:38 PM CST (12/5)
Length of Visible Light 10h 46m
Length of Day
9h 50m
Waxing Crescent, 11% of the Moon is Illuminated
Dec 5
Waxing Crescent
Dec 9
First Quarter
Dec 17
Full
Dec 25
Last Quarter
Jan 1
New

Hourly Weather History & Observations

Time (CST) Temp. Windchill Dew Point Humidity Pressure Visibility Wind Dir Wind Speed Gust Speed Precip Events Conditions
12:15 AM 27.3 °F 13.3 °F 11.3 °F 51% 30.10 in 10.0 mi NNW 21.9 mph 28.8 mph N/A   Clear
12:35 AM 27.0 °F 13.2 °F 10.9 °F 51% 30.10 in 10.0 mi NNW 20.7 mph 28.8 mph N/A   Clear
12:55 AM 26.6 °F 12.7 °F 10.4 °F 51% 30.11 in 10.0 mi NNW 20.7 mph 27.6 mph N/A   Clear
1:15 AM 26.1 °F 12.3 °F 10.6 °F 52% 30.11 in 10.0 mi NNW 19.6 mph 26.5 mph N/A   Clear
1:35 AM 25.7 °F 11.2 °F 10.2 °F 52% 30.12 in 10.0 mi NNW 21.9 mph 27.6 mph N/A   Clear
1:55 AM 25.2 °F 10.8 °F 10.4 °F 54% 30.11 in 10.0 mi North 20.7 mph 27.6 mph N/A   Clear
2:15 AM 24.8 °F 8.7 °F 9.3 °F 52% 30.12 in 10.0 mi NNW 26.5 mph 32.2 mph N/A   Clear
2:35 AM 24.3 °F 10.4 °F 9.1 °F 53% 30.13 in 10.0 mi NNW 18.4 mph 28.8 mph N/A   Clear
2:55 AM 23.9 °F 9.1 °F 9.0 °F 53% 30.14 in 10.0 mi NNW 20.7 mph 27.6 mph N/A   Clear
3:15 AM 23.7 °F 9.7 °F 9.0 °F 53% 30.16 in 10.0 mi North 18.4 mph 23.0 mph N/A   Clear
3:35 AM 23.5 °F 8.0 °F 8.8 °F 53% 30.16 in 10.0 mi North 23.0 mph 28.8 mph N/A   Clear
3:55 AM 23.5 °F 8.7 °F 9.1 °F 54% 30.16 in 10.0 mi North 20.7 mph 26.5 mph N/A   Scattered Clouds
4:15 AM 23.4 °F 9.2 °F 9.5 °F 55% 30.17 in 10.0 mi North 18.4 mph 25.3 mph N/A   Scattered Clouds
4:35 AM 23.2 °F 9.8 °F 10.6 °F 59% 30.17 in 10.0 mi North 16.1 mph 23.0 mph N/A   Clear
4:55 AM 22.1 °F 6.8 °F 10.9 °F 62% 30.17 in 10.0 mi North 20.7 mph 29.9 mph N/A   Clear
5:15 AM 21.6 °F 5.0 °F 11.3 °F 65% 30.18 in 10.0 mi North 24.2 mph 27.6 mph N/A   Clear
5:35 AM 21.2 °F 4.9 °F 11.7 °F 67% 30.18 in 10.0 mi North 23.0 mph 29.9 mph N/A   Clear
5:55 AM 21.0 °F 6.6 °F 11.8 °F 68% 30.20 in 10.0 mi North 17.3 mph 27.6 mph N/A   Clear
6:15 AM 20.8 °F 5.1 °F 11.3 °F 67% 30.21 in 10.0 mi North 20.7 mph 26.5 mph N/A   Clear
6:35 AM 20.8 °F 4.4 °F 10.2 °F 64% 30.19 in 10.0 mi North 23.0 mph 29.9 mph N/A   Clear
6:55 AM 20.8 °F 5.5 °F 9.3 °F 61% 30.20 in 10.0 mi North 19.6 mph 28.8 mph N/A   Clear
7:15 AM 20.8 °F 4.7 °F 8.6 °F 59% 30.20 in 10.0 mi North 21.9 mph 26.5 mph N/A   Clear
7:35 AM 21.0 °F 5.7 °F 8.6 °F 59% 30.22 in 10.0 mi North 19.6 mph 26.5 mph N/A   Clear
7:55 AM 21.2 °F 6.0 °F 8.4 °F 58% 30.24 in 10.0 mi North 19.6 mph 23.0 mph N/A   Clear
8:15 AM 21.0 °F 5.0 °F 9.1 °F 60% 30.20 in 10.0 mi North 21.9 mph - N/A   Clear
8:35 AM 21.4 °F 7.1 °F 9.1 °F 59% 30.23 in 10.0 mi North 17.3 mph 27.6 mph N/A   Clear
8:55 AM 21.7 °F 6.7 °F 8.6 °F 57% 30.22 in 10.0 mi North 19.6 mph 23.0 mph N/A   Clear
9:15 AM 21.9 °F 6.9 °F 8.1 °F 55% 30.27 in 10.0 mi North 19.6 mph 25.3 mph N/A   Clear
9:35 AM 22.1 °F 8.5 °F 8.6 °F 56% 30.28 in 10.0 mi North 16.1 mph - N/A   Clear
9:55 AM 22.3 °F 7.4 °F 8.6 °F 56% 30.28 in 10.0 mi North 19.6 mph - N/A   Scattered Clouds
10:15 AM 22.1 °F 7.2 °F 8.2 °F 55% 30.27 in 10.0 mi North 19.6 mph 23.0 mph N/A   Scattered Clouds
10:35 AM 22.1 °F 8.0 °F 7.7 °F 54% 30.27 in 10.0 mi North 17.3 mph 25.3 mph N/A   Scattered Clouds
10:55 AM 21.9 °F 8.2 °F 7.5 °F 54% 30.28 in 10.0 mi North 16.1 mph - N/A   Scattered Clouds
11:15 AM 22.1 °F 7.6 °F 7.2 °F 53% 30.28 in 10.0 mi North 18.4 mph 21.9 mph N/A   Mostly Cloudy
11:35 AM 21.9 °F 7.8 °F 6.8 °F 52% 30.28 in 10.0 mi North 17.3 mph 21.9 mph N/A   Overcast
11:55 AM 21.7 °F 8.5 °F 6.4 °F 52% 30.26 in 10.0 mi North 15.0 mph - N/A   Overcast
12:15 PM 21.9 °F 9.8 °F 6.3 °F 51% 30.29 in 10.0 mi North 12.7 mph - N/A   Overcast
12:35 PM 21.6 °F 10.6 °F 6.3 °F 52% 30.27 in 10.0 mi North 10.4 mph - N/A   Overcast
12:55 PM 21.7 °F 8.5 °F 6.4 °F 52% 30.26 in 10.0 mi NNW 15.0 mph 18.4 mph N/A   Overcast
1:15 PM 21.2 °F 7.8 °F 5.9 °F 52% 30.25 in 10.0 mi North 15.0 mph - N/A   Overcast
1:35 PM 20.8 °F 6.8 °F 5.7 °F 52% 30.23 in 10.0 mi North 16.1 mph - N/A   Overcast
1:55 PM 21.0 °F 7.1 °F 5.9 °F 52% 30.21 in 10.0 mi North 16.1 mph - N/A   Overcast
2:15 PM 21.2 °F 7.3 °F 5.9 °F 52% 30.20 in 10.0 mi North 16.1 mph - N/A   Mostly Cloudy
2:35 PM 21.7 °F 7.5 °F 6.1 °F 51% 30.21 in 10.0 mi NNW 17.3 mph - N/A   Overcast
2:55 PM 21.4 °F 7.5 °F 5.9 °F 51% 30.21 in 10.0 mi North 16.1 mph - N/A   Overcast
3:15 PM 21.2 °F 6.8 °F 6.1 °F 52% 30.21 in 10.0 mi North 17.3 mph 20.7 mph N/A   Overcast
3:35 PM 21.0 °F 6.2 °F 5.9 °F 52% 30.20 in 10.0 mi North 18.4 mph - N/A   Overcast
3:55 PM 20.8 °F 5.9 °F 6.8 °F 55% 30.20 in 10.0 mi North 18.4 mph 24.2 mph N/A   Overcast
4:15 PM 20.8 °F 6.4 °F 6.3 °F 53% 30.21 in 10.0 mi North 17.3 mph - N/A   Overcast
4:35 PM 20.7 °F 7.6 °F 6.3 °F 54% 30.21 in 10.0 mi North 13.8 mph 19.6 mph N/A   Overcast
4:55 PM 20.7 °F 6.1 °F 6.1 °F 53% 30.21 in 10.0 mi North 17.3 mph 21.9 mph N/A   Overcast
5:15 PM 20.7 °F 7.1 °F 7.2 °F 56% 30.23 in 10.0 mi North 15.0 mph - N/A   Overcast
5:35 PM 19.9 °F 5.2 °F 8.6 °F 61% 30.23 in 10.0 mi North 17.3 mph - N/A   Overcast
5:55 PM 19.4 °F 4.5 °F 10.2 °F 68% 30.24 in 4.0 mi North 17.3 mph - N/A Snow Light Snow
6:15 PM 19.0 °F 6.1 °F 11.7 °F 73% 30.24 in 7.0 mi North 12.7 mph 18.4 mph N/A Snow Light Snow
6:35 PM 18.5 °F 6.1 °F 12.6 °F 78% 30.26 in 10.0 mi North 11.5 mph - N/A Snow Light Snow
6:55 PM 18.7 °F 5.1 °F 12.9 °F 78% 30.26 in 10.0 mi North 13.8 mph - N/A   Overcast
7:15 PM 18.5 °F 3.8 °F 12.6 °F 78% 30.26 in 10.0 mi North 16.1 mph - N/A   Overcast
7:35 PM 18.5 °F 3.3 °F 12.9 °F 79% 30.27 in 10.0 mi North 17.3 mph - N/A   Overcast
7:55 PM 18.1 °F 3.9 °F 13.5 °F 82% 30.28 in 10.0 mi North 15.0 mph 20.7 mph N/A   Overcast
8:15 PM 17.6 °F 2.2 °F 13.8 °F 85% 30.28 in 10.0 mi North 17.3 mph 20.7 mph N/A   Overcast
8:35 PM 17.8 °F 4.0 °F 13.6 °F 84% 30.27 in 10.0 mi North 13.8 mph 19.6 mph N/A   Overcast
8:55 PM 18.0 °F 5.4 °F 13.5 °F 83% 30.28 in 10.0 mi North 11.5 mph - N/A   Overcast
9:15 PM 18.0 °F 4.2 °F 13.3 °F 82% 30.29 in 10.0 mi North 13.8 mph - N/A   Overcast
9:35 PM 18.3 °F 4.6 °F 13.6 °F 82% 30.29 in 10.0 mi North 13.8 mph - N/A   Overcast
9:55 PM 18.3 °F 4.6 °F 13.3 °F 81% 30.29 in 10.0 mi North 13.8 mph 19.6 mph N/A   Overcast
10:15 PM 18.3 °F 3.6 °F 13.5 °F 81% 30.28 in 10.0 mi North 16.1 mph - N/A   Overcast
10:35 PM 18.3 °F 4.1 °F 13.1 °F 80% 30.29 in 10.0 mi North 15.0 mph 20.7 mph N/A   Overcast
10:55 PM 18.5 °F 3.3 °F 13.1 °F 79% 30.28 in 10.0 mi North 17.3 mph - N/A   Overcast
11:15 PM 18.5 °F 6.1 °F 12.0 °F 76% 30.29 in 10.0 mi North 11.5 mph 17.3 mph N/A   Overcast
11:35 PM 18.5 °F 3.3 °F 11.3 °F 73% 30.29 in 7.0 mi North 17.3 mph - N/A Snow Light Snow
11:55 PM 18.3 °F 3.1 °F 11.3 °F 74% 30.29 in 5.0 mi North 17.3 mph - N/A Snow Light Snow